• In Denmark
  • List of Countries
  • For 7 days
  • Water Temperature
  • Satellite Maps
  • Weather Map
  • Weather Widgets
  • user-avatar
    Login

    Hourly Weather Igls

    Today, 18 October, Wednesday

    Time Temperature Precipitation Wind Pressure Humidity
    00:00 +10°C° 0 mm 2 mps 687 mmHg 61%
    01:00 +10°C° 0 mm 2 mps 687 mmHg 62%
    02:00 +10°C° 0 mm 2 mps 686 mmHg 61%
    03:00 +10°C° 0 mm 2 mps 686 mmHg 60%
    04:00 +10°C° 0 mm 2 mps 686 mmHg 59%
    05:00 +9°C° 0 mm 2 mps 685 mmHg 58%
    06:00 +9°C° 0 mm 2 mps 685 mmHg 56%
    07:00 +9°C° 0 mm 2 mps 685 mmHg 55%
    08:00 +13°C° 0 mm 1 mps 685 mmHg 48%
    09:00 +16°C° 0 mm 1 mps 686 mmHg 42%
    10:00 +19°C° 0 mm 1 mps 686 mmHg 36%
    11:00 +20°C° 0 mm 1 mps 686 mmHg 34%
    12:00 +21°C° 0 mm 1 mps 686 mmHg 33%
    13:00 +21°C° 0 mm 2 mps 686 mmHg 31%
    14:00 +20°C° 0 mm 2 mps 685 mmHg 37%
    15:00 +19°C° 0 mm 2 mps 685 mmHg 43%
    16:00 +19°C° 0 mm 1 mps 684 mmHg 49%
    17:00 +16°C° 0 mm 1 mps 684 mmHg 56%
    18:00 +13°C° 0 mm 1 mps 684 mmHg 63%
    19:00 +11°C° 0 mm 1 mps 684 mmHg 70%
    20:00 +10°C° 0 mm 1 mps 684 mmHg 68%
    21:00 +9°C° 0 mm 2 mps 684 mmHg 66%
    22:00 +9°C° 0 mm 2 mps 684 mmHg 65%
    23:00 +9°C° 0 mm 2 mps 684 mmHg 65%

    Tomorrow, 19 October, Thursday

    Time Temperature Precipitation Wind Pressure Humidity
    00:00 +8°C° 0 mm 2 mps 684 mmHg 65%
    01:00 +8°C° 0 mm 2 mps 684 mmHg 65%
    02:00 +8°C° 0 mm 2 mps 684 mmHg 65%
    03:00 +8°C° 0 mm 2 mps 683 mmHg 65%
    04:00 +8°C° 0 mm 2 mps 683 mmHg 65%
    05:00 +8°C° 0 mm 2 mps 683 mmHg 62%
    06:00 +7°C° 0 mm 2 mps 683 mmHg 60%
    07:00 +7°C° 0 mm 2 mps 683 mmHg 58%
    08:00 +11°C° 0 mm 1 mps 684 mmHg 51%
    09:00 +14°C° 0 mm 1 mps 684 mmHg 43%
    10:00 +18°C° 0 mm 1 mps 685 mmHg 35%
    11:00 +19°C° 0 mm 1 mps 684 mmHg 33%
    12:00 +20°C° 0 mm 1 mps 684 mmHg 31%
    13:00 +21°C° 0 mm 1 mps 684 mmHg 30%
    14:00 +20°C° 0 mm 1 mps 684 mmHg 36%
    15:00 +19°C° 0 mm 1 mps 684 mmHg 43%
    16:00 +18°C° 0 mm 1 mps 683 mmHg 49%
    17:00 +15°C° 0 mm 1 mps 683 mmHg 55%
    18:00 +13°C° 0 mm 1 mps 683 mmHg 61%
    19:00 +10°C° 0 mm 2 mps 683 mmHg 66%
    20:00 +9°C° 0 mm 2 mps 683 mmHg 67%
    21:00 +9°C° 0 mm 2 mps 683 mmHg 68%
    22:00 +9°C° 0 mm 2 mps 683 mmHg 69%
    23:00 +9°C° 0 mm 2 mps 683 mmHg 70%

    Day after tomorrow, 20 October, Friday

    Time Temperature Precipitation Wind Pressure Humidity
    00:00 +9°C° 0 mm 2 mps 683 mmHg 72%
    01:00 +9°C° 0 mm 2 mps 683 mmHg 74%
    02:00 +8°C° 0 mm 2 mps 683 mmHg 76%
    03:00 +8°C° 0 mm 2 mps 683 mmHg 77%
    04:00 +8°C° 0 mm 2 mps 683 mmHg 78%
    05:00 +8°C° 0 mm 2 mps 683 mmHg 78%
    06:00 +8°C° 0 mm 2 mps 683 mmHg 78%
    07:00 +8°C° 0 mm 2 mps 683 mmHg 79%
    08:00 +12°C° 0 mm 1 mps 684 mmHg 70%
    09:00 +15°C° 0 mm 1 mps 684 mmHg 61%
    10:00 +18°C° 0 mm 1 mps 685 mmHg 52%
    11:00 +19°C° 0 mm 1 mps 685 mmHg 50%
    12:00 +20°C° 0 mm 1 mps 685 mmHg 48%
    13:00 +19°C° 0 mm 2 mps 685 mmHg 46%
    14:00 +20°C° 0 mm 1 mps 685 mmHg 51%
    15:00 +19°C° 0 mm 1 mps 685 mmHg 56%
    16:00 +18°C° 0 mm 1 mps 685 mmHg 61%
    17:00 +15°C° 0 mm 1 mps 685 mmHg 70%
    18:00 +13°C° 0 mm 1 mps 685 mmHg 79%
    19:00 +9°C° 0 mm 0 mps 685 mmHg 88%
    20:00 +10°C° 0 mm 1 mps 685 mmHg 87%
    21:00 +10°C° 0 mm 1 mps 685 mmHg 86%
    22:00 +10°C° 0 mm 1 mps 685 mmHg 85%
    23:00 +10°C° 0 mm 1 mps 685 mmHg 84%

    21 October, Saturday

    Time Temperature Precipitation Wind Pressure Humidity
    00:00 +10°C° 0 mm 1 mps 685 mmHg 82%
    01:00 +11°C° 0 mm 1 mps 685 mmHg 80%
    02:00 +11°C° 0 mm 1 mps 685 mmHg 79%
    03:00 +11°C° 0 mm 1 mps 685 mmHg 77%
    04:00 +11°C° 0 mm 1 mps 685 mmHg 76%
    05:00 +11°C° 0 mm 1 mps 685 mmHg 75%
    06:00 +11°C° 0 mm 1 mps 685 mmHg 75%
    07:00 +11°C° 0 mm 1 mps 685 mmHg 74%
    08:00 +13°C° 0 mm 1 mps 686 mmHg 66%
    09:00 +15°C° 0 mm 1 mps 686 mmHg 59%
    10:00 +19°C° 0 mm 1 mps 687 mmHg 51%
    11:00 +20°C° 0 mm 1 mps 687 mmHg 48%
    12:00 +20°C° 0 mm 1 mps 686 mmHg 46%
    13:00 +21°C° 0 mm 1 mps 686 mmHg 43%
    14:00 +21°C° 0 mm 1 mps 686 mmHg 49%
    15:00 +20°C° 0 mm 1 mps 686 mmHg 55%
    16:00 +19°C° 0 mm 1 mps 685 mmHg 61%
    17:00 +16°C° 0 mm 1 mps 685 mmHg 71%
    18:00 +13°C° 0 mm 1 mps 685 mmHg 80%
    19:00 +10°C° 0 mm 0 mps 685 mmHg 89%
    20:00 +10°C° 0 mm 0 mps 685 mmHg 90%
    21:00 +10°C° 0 mm 0 mps 685 mmHg 91%
    22:00 +9°C° 0 mm 0 mps 685 mmHg 93%
    23:00 +10°C° 0.1 mm 0 mps 685 mmHg 92%

    22 October, Sunday

    Time Temperature Precipitation Wind Pressure Humidity
    00:00 +10°C° 0.1 mm 0 mps 685 mmHg 92%
    01:00 +10°C° 0.1 mm 0 mps 685 mmHg 92%
    02:00 +11°C° 0.5 mm 1 mps 685 mmHg 93%
    03:00 +11°C° 0.5 mm 1 mps 685 mmHg 94%
    04:00 +10°C° 0.5 mm 1 mps 684 mmHg 95%
    05:00 +10°C° 1.1 mm 1 mps 684 mmHg 95%
    06:00 +10°C° 1.1 mm 1 mps 684 mmHg 96%
    07:00 +10°C° 1.1 mm 1 mps 684 mmHg 96%
    08:00 +9°C° 1.4 mm 2 mps 684 mmHg 95%
    09:00 +8°C° 1.4 mm 2 mps 684 mmHg 95%
    10:00 +8°C° 1.4 mm 2 mps 684 mmHg 94%
    11:00 +8°C° 1.3 mm 2 mps 684 mmHg 93%
    12:00 +8°C° 1.3 mm 2 mps 684 mmHg 93%
    13:00 +7°C° 1.3 mm 2 mps 684 mmHg 92%
    14:00 +7°C° 1.1 mm 2 mps 684 mmHg 93%
    15:00 +7°C° 1.1 mm 2 mps 684 mmHg 93%
    16:00 +5°C° 1.1 mm 3 mps 684 mmHg 93%
    17:00 +5°C° 0.7 mm 3 mps 685 mmHg 94%
    18:00 +5°C° 0.7 mm 3 mps 685 mmHg 94%
    19:00 +4°C° 0.7 mm 3 mps 685 mmHg 95%
    20:00 +5°C° 0.2 mm 2 mps 686 mmHg 95%
    21:00 +4°C° 0.2 mm 2 mps 686 mmHg 94%
    22:00 +4°C° 0.2 mm 2 mps 686 mmHg 94%
    23:00 +4°C° 0.2 mm 2 mps 686 mmHg 94%

    23 October, Monday

    Time Temperature Precipitation Wind Pressure Humidity
    00:00 +3°C° 0.2 mm 2 mps 686 mmHg 95%
    01:00 +3°C° 0.2 mm 2 mps 687 mmHg 95%
    02:00 +3°C° 0.1 mm 2 mps 687 mmHg 95%
    03:00 +3°C° 0.1 mm 2 mps 687 mmHg 95%
    04:00 +3°C° 0.1 mm 2 mps 687 mmHg 95%
    05:00 +2°C° 0 mm 2 mps 688 mmHg 95%
    06:00 +2°C° 0 mm 2 mps 688 mmHg 95%
    07:00 +2°C° 0 mm 2 mps 688 mmHg 95%
    08:00 +3°C° 0 mm 2 mps 688 mmHg 90%
    09:00 +5°C° 0 mm 2 mps 689 mmHg 85%
    10:00 +6°C° 0 mm 2 mps 689 mmHg 81%
    11:00 +7°C° 0 mm 2 mps 689 mmHg 77%
    12:00 +8°C° 0 mm 2 mps 689 mmHg 74%
    13:00 +9°C° 0 mm 2 mps 688 mmHg 71%
    14:00 +9°C° 0 mm 2 mps 688 mmHg 73%
    15:00 +10°C° 0 mm 1 mps 688 mmHg 75%
    16:00 +9°C° 0 mm 1 mps 688 mmHg 78%
    17:00 +8°C° 0 mm 1 mps 688 mmHg 80%
    18:00 +6°C° 0 mm 1 mps 689 mmHg 82%
    19:00 +4°C° 0 mm 1 mps 689 mmHg 84%
    20:00 +5°C° 0 mm 1 mps 689 mmHg 79%
    21:00 +5°C° 0 mm 1 mps 689 mmHg 75%
    22:00 +5°C° 0 mm 1 mps 689 mmHg 71%
    23:00 +5°C° 0 mm 1 mps 689 mmHg 67%
    Show more